STARLINK-34583, 64713

Orbit data source: Space-Track

STARLINK-34583, 64713 is a payload satellite owned by SpaceX/Seattle (US) in LEO that was launched on Sat, 28 Jun 2025 UTC via an FALCON 9 launch vehicle from the Air Force Western Test Range (AFWTR). Payload-class satellites include a variety of spacecraft equipped with specific instruments for various scientific and technological missions. These include communications satellites like Starlink; space stations such as the ISS; scientific satellites like the Hubble; Earth observation satellites from companies like Planet Labs, Umbra, and HawkEye 360; GPS; miniature CubeSats for education and research; and military/defense satellites.

Loading next visibility...
Identifier
64713, 2025-142T
Orbit
LEO
Country
Flag of USUS
Related business
Manufacturer
SpaceX/Seattle
Mission
Operational Commercial Communications
Bus & Motor
STARLINK V2MO, Unknown motor
Mass
575 kg wet, ~530 kg dry
Launch date (UTC)
2025-06-28 (1 year ago)
Launch vehicle
FALCON 9
Launch site
Air Force Western Test Range (AFWTR)
Object type
Payload
Rocket body
Debris
Shape & HBR
Box + 1 Pan, 17.7 m
Radar Cross Section
41.120 m², Large (>1 m²)

Expand to show TLE details & history
Last TLE update: 18 hours ago

TLE from 18 hours ago
0 STARLINK-34583
1 64713U 25142T   26264.01630112  .00018343  00000-0  64082-3 0  9991
2 64713  70.0014 179.3559 0003011 267.9455  92.1376 15.29588268 68788
Epoch: 2026-09-21T00:23Z
TLE epoch observation values (Epoch: 2026-09-21T00:23:28.416Z)
Latitude
0.00002°
Longitude
173.58532°
Altitude
479.577 km
Speed
7.626 km/s
True Right ascension
11h 57m 25s
True Declination
0° 00' 00"
Sunlit
Object was in daylight at epoch
Visualization orbit readout
Latitude
Unknown
Longitude
Unknown
Altitude
Unknown
Speed
Unknown
Apparent Right ascension
Unknown
Apparent Declination
Unknown
Sunlit
N/A
Visualization observer readout
Local Sidereal Time
10:58:21
Azimuth
Unknown
Elevation
Unknown
Doppler factor
Unknown
Orbital elements
Apogee altitude
477.025 km
Perigee altitude
472.898 km
Semi-major axis
6,853.099 km
Eccentricity
0.0003
Inclination
70.0014°
RAAN
179.3559°
Arg. of periapsis
267.9455°
True anomaly
92.17208°
Mean anomaly
92.1376°
Eccentric anomaly
92.15484°
Mean motion
3.82572 °/min
Orbital period
94.1 mins
BSTAR
0.00064082
Loading maneuver chart data...
Computing Atmospheric mass density...
Loading historical data...
Loading historical data...
Loading historical data...
Loading historical data...
Loading historical data...
Loading historical data...
Loading historical data...

Documentation

Showing up to 5 results
|